CES873 ZGSZ-ZSSS

Flight info

Callsign CES873
Flight time N/A
Altitude 35100
Route IDUMA1 IDUMA W41 ISLOM G471 XEBUL DCT ODOPI DCT AKAVO DCT UPNUG W76 AREPI B221 SHZ G204 JTN
Aircraft B738/M-SDE2E3FGHIRWXY/LB1

Departure

Time 2026-04-11 04:52
Airport Shenzhen Bao'an International Airport (ZGSZ)

Arrival

Time N/A
Airport Shanghai Hongqiao International Airport (ZSSS)
Time Latitude Longitude Altitude Speed Heading
2026-04-11 04:38 22.64369 113.80258 20 ft 0 kts 243°
2026-04-11 04:38 22.64370 113.80258 20 ft 0 kts 243°
2026-04-11 04:44 22.64370 113.80260 20 ft 1 kts 244°
2026-04-11 04:45 22.64377 113.80274 20 ft 2 kts 243°
2026-04-11 04:45 22.64384 113.80289 20 ft 2 kts 243°
2026-04-11 04:45 22.64391 113.80303 20 ft 2 kts 243°
2026-04-11 04:45 22.64397 113.80318 20 ft 2 kts 243°
2026-04-11 04:46 22.64404 113.80332 20 ft 2 kts 243°
2026-04-11 04:46 22.64411 113.80347 20 ft 2 kts 246°
2026-04-11 04:46 22.64412 113.80363 20 ft 2 kts 285°
2026-04-11 04:46 22.64405 113.80378 20 ft 2 kts 316°
2026-04-11 04:47 22.64399 113.80383 20 ft 1 kts 333°
2026-04-11 04:47 22.64393 113.80386 20 ft 0 kts 333°
2026-04-11 04:49 22.64396 113.80385 20 ft 2 kts 333°
2026-04-11 04:49 22.64500 113.80325 20 ft 18 kts 333°
2026-04-11 04:49 22.64582 113.80373 20 ft 14 kts 63°
2026-04-11 04:49 22.64639 113.80447 20 ft 12 kts
2026-04-11 04:50 22.64717 113.80412 20 ft 14 kts 333°
2026-04-11 04:50 22.64854 113.80335 20 ft 27 kts 333°
2026-04-11 04:50 22.65022 113.80244 20 ft 26 kts 332°
2026-04-11 04:50 22.65168 113.80165 20 ft 12 kts 339°
2026-04-11 04:51 22.65233 113.80202 20 ft 11 kts 65°
2026-04-11 04:51 22.65274 113.80304 20 ft 16 kts 96°
2026-04-11 04:51 22.65157 113.80390 20 ft 47 kts 153°
2026-04-11 04:51 22.64656 113.80664 20 ft 111 kts 150°
2026-04-11 04:52 22.63781 113.81147 26 ft 164 kts 153°
2026-04-11 04:52 22.62777 113.81709 683 ft 160 kts 156°
2026-04-11 04:52 22.61781 113.82235 1352 ft 163 kts 156°
2026-04-11 04:52 22.60769 113.82800 1886 ft 168 kts 156°
2026-04-11 04:53 22.59685 113.83408 2240 ft 182 kts 157°
2026-04-11 04:53 22.58497 113.84044 2621 ft 194 kts 157°
2026-04-11 04:53 22.57246 113.84717 2973 ft 208 kts 157°
2026-04-11 04:53 22.55894 113.85450 3327 ft 221 kts 156°
2026-04-11 04:54 22.54449 113.86235 3658 ft 239 kts 157°
2026-04-11 04:54 22.52984 113.87068 4351 ft 242 kts 152°
2026-04-11 04:54 22.51688 113.88259 5030 ft 252 kts 130°
2026-04-11 04:54 22.50981 113.90033 5688 ft 265 kts 104°
2026-04-11 04:55 22.50978 113.92063 6316 ft 276 kts 83°
2026-04-11 04:55 22.51551 113.94050 6943 ft 283 kts 68°
2026-04-11 04:55 22.52444 113.95973 7591 ft 287 kts 63°
2026-04-11 04:55 22.53395 113.97853 8289 ft 288 kts 62°
2026-04-11 04:56 22.54424 113.99739 8936 ft 293 kts 55°
2026-04-11 04:56 22.55810 114.01361 9604 ft 295 kts 33°
2026-04-11 04:56 22.57694 114.02264 10068 ft 302 kts
2026-04-11 04:56 22.59821 114.02551 10463 ft 314 kts
2026-04-11 04:57 22.62065 114.02684 10861 ft 329 kts 359°
2026-04-11 04:57 22.64419 114.02828 11258 ft 344 kts
2026-04-11 04:57 22.66847 114.03021 11599 ft 360 kts
2026-04-11 04:57 22.69418 114.03231 11944 ft 375 kts 359°
2026-04-11 04:58 22.72066 114.03076 12301 ft 382 kts 344°
2026-04-11 04:58 22.74615 114.02230 12916 ft 382 kts 334°
2026-04-11 04:58 22.77085 114.01116 13527 ft 385 kts 331°
2026-04-11 04:58 22.79544 113.99913 14224 ft 388 kts 330°
2026-04-11 04:59 22.82027 113.98697 14877 ft 392 kts 330°
2026-04-11 04:59 22.84538 113.97501 15550 ft 396 kts 331°
2026-04-11 04:59 22.87122 113.96392 16183 ft 402 kts 335°
2026-04-11 04:59 22.89875 113.95654 16713 ft 416 kts 347°
2026-04-11 05:00 22.92808 113.95609 17343 ft 426 kts 359°
2026-04-11 05:00 22.95776 113.95969 17896 ft 433 kts
2026-04-11 05:00 22.98768 113.96487 18527 ft 436 kts
2026-04-11 05:00 23.01767 113.97063 19097 ft 439 kts
2026-04-11 05:01 23.04818 113.97655 19648 ft 442 kts
2026-04-11 05:01 23.07858 113.98231 20216 ft 444 kts
2026-04-11 05:01 23.10904 113.98797 20834 ft 443 kts
2026-04-11 05:01 23.13981 113.99356 21384 ft 445 kts
2026-04-11 05:02 23.17045 113.99905 21841 ft 448 kts
2026-04-11 05:02 23.20161 114.00457 22394 ft 449 kts
2026-04-11 05:02 23.23268 114.01006 22849 ft 453 kts
2026-04-11 05:02 23.26371 114.01735 23312 ft 460 kts 11°
2026-04-11 05:03 23.29422 114.02921 23768 ft 468 kts 20°
2026-04-11 05:03 23.32310 114.04614 24219 ft 475 kts 28°
2026-04-11 05:03 23.35058 114.06651 24711 ft 479 kts 33°
2026-04-11 05:03 23.37751 114.08892 25061 ft 485 kts 35°
2026-04-11 05:04 23.40375 114.11196 25582 ft 486 kts 36°
2026-04-11 05:04 23.42995 114.13542 26061 ft 488 kts 37°
2026-04-11 05:04 23.45630 114.15901 26464 ft 492 kts 36°
2026-04-11 05:04 23.48282 114.18259 26861 ft 495 kts 36°
2026-04-11 05:05 23.53702 114.23016 27728 ft 499 kts 36°
2026-04-11 05:05 23.56424 114.25379 28198 ft 500 kts 35°
2026-04-11 05:05 23.59154 114.27737 28586 ft 502 kts 35°
2026-04-11 05:06 23.61906 114.30105 28994 ft 504 kts 35°
2026-04-11 05:06 23.64657 114.32468 29571 ft 502 kts 35°
2026-04-11 05:06 23.67422 114.34820 30182 ft 499 kts 35°
2026-04-11 05:06 23.70183 114.37112 30800 ft 495 kts 34°
2026-04-11 05:07 23.72931 114.39362 31318 ft 494 kts 34°
2026-04-11 05:07 23.75684 114.41602 31788 ft 493 kts 34°
2026-04-11 05:07 23.78428 114.43832 32321 ft 491 kts 34°
2026-04-11 05:07 23.81162 114.46058 32813 ft 489 kts 34°
2026-04-11 05:08 23.83911 114.48319 33328 ft 487 kts 34°
2026-04-11 05:08 23.86589 114.50515 33840 ft 486 kts 34°
2026-04-11 05:08 23.89314 114.52748 34343 ft 484 kts 34°
2026-04-11 05:08 23.91994 114.54946 34788 ft 483 kts 34°
2026-04-11 05:09 23.94681 114.57151 34982 ft 486 kts 34°
2026-04-11 05:09 23.97431 114.59410 34978 ft 488 kts 34°
2026-04-11 05:09 24.02843 114.63867 34970 ft 485 kts 33°
2026-04-11 05:10 24.08263 114.68340 34961 ft 487 kts 34°
2026-04-11 05:10 24.13703 114.72835 34960 ft 488 kts 34°
2026-04-11 05:11 24.19128 114.77325 34961 ft 488 kts 34°
2026-04-11 05:11 24.24577 114.81853 34954 ft 489 kts 35°
2026-04-11 05:12 24.29588 114.86898 34963 ft 492 kts 45°
2026-04-11 05:12 24.34010 114.92655 34967 ft 495 kts 50°
2026-04-11 05:13 24.38215 114.98703 34974 ft 495 kts 51°
2026-04-11 05:13 24.42354 115.04757 34972 ft 496 kts 51°
2026-04-11 05:14 24.46520 115.10811 34972 ft 497 kts 51°
2026-04-11 05:14 24.50711 115.16859 34968 ft 497 kts 50°
2026-04-11 05:15 24.54905 115.22884 34958 ft 496 kts 50°
2026-04-11 05:15 24.59098 115.28899 34960 ft 497 kts 50°
2026-04-11 05:16 24.63294 115.34924 34961 ft 496 kts 50°
2026-04-11 05:16 24.67500 115.40969 34967 ft 497 kts 50°
2026-04-11 05:17 24.71620 115.47108 34966 ft 497 kts 52°
2026-04-11 05:17 24.75623 115.53307 34969 ft 497 kts 52°
2026-04-11 05:18 24.79625 115.59545 34987 ft 499 kts 52°
2026-04-11 05:18 24.83641 115.65787 34991 ft 498 kts 52°
2026-04-11 05:19 24.87666 115.72024 34987 ft 498 kts 52°
2026-04-11 05:19 24.91683 115.78241 34982 ft 498 kts 52°
2026-04-11 05:20 24.95726 115.84499 34975 ft 499 kts 52°
2026-04-11 05:20 24.99766 115.90758 34971 ft 500 kts 52°
2026-04-11 05:21 25.03783 115.96991 34975 ft 498 kts 52°
2026-04-11 05:21 25.07793 116.03222 34998 ft 499 kts 52°
2026-04-11 05:22 25.11819 116.09486 35003 ft 498 kts 52°
2026-04-11 05:22 25.15835 116.15744 34999 ft 498 kts 52°
2026-04-11 05:23 25.19831 116.21978 35006 ft 499 kts 52°
2026-04-11 05:23 25.23855 116.28262 34984 ft 500 kts 52°
2026-04-11 05:24 25.27857 116.34525 34991 ft 500 kts 52°
2026-04-11 05:24 25.31873 116.40813 35005 ft 498 kts 52°
2026-04-11 05:25 25.35854 116.47057 35011 ft 499 kts 52°
2026-04-11 05:25 25.39873 116.53365 35015 ft 501 kts 52°
2026-04-11 05:26 25.43871 116.59649 35009 ft 499 kts 52°
2026-04-11 05:26 25.47889 116.65974 34997 ft 500 kts 52°
2026-04-11 05:27 25.51894 116.72289 34980 ft 499 kts 52°
2026-04-11 05:27 25.55896 116.78610 34971 ft 499 kts 52°
2026-04-11 05:28 25.59892 116.84927 34981 ft 500 kts 52°
2026-04-11 05:28 25.63855 116.91219 35000 ft 499 kts 52°
2026-04-11 05:29 25.67843 116.97568 35004 ft 500 kts 52°
2026-04-11 05:29 25.71831 117.03882 35002 ft 500 kts 52°
2026-04-11 05:30 25.75827 117.10216 35029 ft 500 kts 52°
2026-04-11 05:30 25.79782 117.16501 35046 ft 500 kts 52°
2026-04-11 05:31 25.83764 117.22841 35053 ft 500 kts 52°
2026-04-11 05:31 25.87752 117.29202 35048 ft 501 kts 52°
2026-04-11 05:32 25.91739 117.35571 35049 ft 502 kts 52°
2026-04-11 05:32 25.95724 117.41949 35053 ft 500 kts 52°
2026-04-11 05:33 25.99690 117.48306 35069 ft 501 kts 52°
2026-04-11 05:33 26.03673 117.54696 35051 ft 503 kts 52°
2026-04-11 05:34 26.07624 117.61042 35019 ft 501 kts 52°
2026-04-11 05:34 26.11615 117.67467 34999 ft 500 kts 52°
2026-04-11 05:35 26.15577 117.73849 35005 ft 501 kts 52°
2026-04-11 05:35 26.19526 117.80222 35014 ft 501 kts 52°
2026-04-11 05:36 26.23499 117.86641 35008 ft 503 kts 52°
2026-04-11 05:36 26.27455 117.93043 34993 ft 501 kts 53°
2026-04-11 05:37 26.31418 117.99463 34975 ft 501 kts 52°
2026-04-11 05:37 26.35345 118.05836 34960 ft 501 kts 52°
2026-04-11 05:38 26.39307 118.12271 34946 ft 502 kts 52°
2026-04-11 05:38 26.43263 118.18706 34923 ft 503 kts 52°
2026-04-11 05:39 26.47195 118.25113 34907 ft 503 kts 52°
2026-04-11 05:39 26.51151 118.31568 34920 ft 502 kts 52°
2026-04-11 05:40 26.55100 118.38020 34910 ft 502 kts 52°
2026-04-11 05:40 26.59027 118.44447 34933 ft 501 kts 52°
2026-04-11 05:41 26.62974 118.50916 34934 ft 503 kts 52°
2026-04-11 05:41 26.66914 118.57382 34964 ft 504 kts 52°
2026-04-11 05:42 26.70850 118.63850 34969 ft 504 kts 52°
2026-04-11 05:42 26.74804 118.70357 34997 ft 504 kts 52°
2026-04-11 05:43 26.78774 118.76896 35008 ft 506 kts 52°
2026-04-11 05:43 26.82704 118.83385 35024 ft 503 kts 52°
2026-04-11 05:44 26.86641 118.89893 35037 ft 503 kts 52°
2026-04-11 05:44 26.90564 118.96384 35043 ft 505 kts 52°
2026-04-11 05:45 26.94522 119.02945 35050 ft 506 kts 52°
2026-04-11 05:45 26.98442 119.09455 35047 ft 507 kts 52°
2026-04-11 05:46 27.02391 119.16024 35037 ft 506 kts 52°
2026-04-11 05:46 27.06311 119.22549 35037 ft 504 kts 52°
2026-04-11 05:47 27.10247 119.29110 35029 ft 505 kts 52°
2026-04-11 05:47 27.14183 119.35680 35016 ft 506 kts 52°
2026-04-11 05:48 27.18124 119.42271 35006 ft 507 kts 52°
2026-04-11 05:48 27.22037 119.48825 34987 ft 506 kts 52°
2026-04-11 05:49 27.25944 119.55418 34979 ft 509 kts 54°
2026-04-11 05:49 27.29464 119.62366 34985 ft 510 kts 59°
2026-04-11 05:50 27.32677 119.69478 34989 ft 511 kts 60°
2026-04-11 05:50 27.35868 119.76665 34984 ft 513 kts 60°
2026-04-11 05:51 27.39067 119.83798 34996 ft 510 kts 60°
2026-04-11 05:51 27.42291 119.90901 34994 ft 513 kts 60°
2026-04-11 05:52 27.45563 119.98078 34995 ft 511 kts 59°
2026-04-11 05:52 27.48796 120.05166 34998 ft 512 kts 59°
2026-04-11 05:53 27.52036 120.12277 35001 ft 511 kts 59°
2026-04-11 05:53 27.55296 120.19440 35000 ft 513 kts 59°
2026-04-11 05:54 27.58534 120.26569 34997 ft 513 kts 59°
2026-04-11 05:54 27.61975 120.33611 34988 ft 507 kts 51°
2026-04-11 05:55 27.64141 120.36665 34994 ft 501 kts 40°
2026-04-11 05:55 27.66712 120.39311 34994 ft 494 kts 32°
2026-04-11 05:55 27.72286 120.43780 34986 ft 490 kts 26°
2026-04-11 05:56 27.78059 120.47913 34987 ft 488 kts 25°
2026-04-11 05:56 27.83802 120.51953 34985 ft 488 kts 25°
2026-04-11 05:57 27.89590 120.56063 34981 ft 489 kts 25°
2026-04-11 05:57 27.95337 120.60189 34983 ft 490 kts 25°
2026-04-11 05:58 28.01210 120.64171 34985 ft 485 kts 18°
2026-04-11 05:58 28.04298 120.65546 34983 ft 471 kts
2026-04-11 05:58 28.07500 120.66273 34988 ft 463 kts 359°
2026-04-11 05:59 28.13894 120.67011 34978 ft 457 kts 355°
2026-04-11 05:59 28.20251 120.67503 34995 ft 454 kts 354°
2026-04-11 06:00 28.26579 120.68004 34983 ft 456 kts 355°
2026-04-11 06:00 28.32931 120.68567 34986 ft 458 kts 355°
2026-04-11 06:01 28.39299 120.69173 34976 ft 456 kts 355°
2026-04-11 06:01 28.45652 120.69790 34981 ft 457 kts 355°
2026-04-11 06:02 28.51958 120.70422 34986 ft 455 kts 355°
2026-04-11 06:02 28.58323 120.71064 34983 ft 457 kts 355°
2026-04-11 06:03 28.64669 120.71702 34987 ft 457 kts 355°
2026-04-11 06:03 28.71023 120.72352 34991 ft 455 kts 355°
2026-04-11 06:04 28.77358 120.73030 34987 ft 459 kts 356°
2026-04-11 06:04 28.83708 120.73737 34997 ft 455 kts 355°
2026-04-11 06:05 28.90077 120.74432 34997 ft 458 kts 355°
2026-04-11 06:05 28.96400 120.75088 34981 ft 455 kts 355°
2026-04-11 06:06 29.05925 120.76060 34982 ft 455 kts 355°
2026-04-11 06:07 29.12267 120.76714 34976 ft 456 kts 355°
2026-04-11 06:07 29.18624 120.77363 34966 ft 459 kts 355°
2026-04-11 06:08 29.24974 120.78020 34960 ft 458 kts 355°
2026-04-11 06:08 29.31329 120.78684 34969 ft 456 kts 355°
2026-04-11 06:09 29.37684 120.79335 34969 ft 459 kts 355°
2026-04-11 06:09 29.44071 120.79997 34964 ft 459 kts 355°
2026-04-11 06:10 29.50422 120.80659 34962 ft 459 kts 355°
2026-04-11 06:10 29.56830 120.81411 34743 ft 462 kts 358°
2026-04-11 06:10 29.60002 120.82179 34285 ft 467 kts
2026-04-11 06:11 29.63097 120.83467 33677 ft 474 kts 14°
2026-04-11 06:11 29.66109 120.85068 32948 ft 479 kts 18°
2026-04-11 06:11 29.69047 120.86811 32277 ft 480 kts 19°
2026-04-11 06:11 29.71977 120.88649 31757 ft 477 kts 20°
2026-04-11 06:12 29.74880 120.90505 31182 ft 475 kts 21°
2026-04-11 06:12 29.77767 120.92349 30596 ft 472 kts 21°
2026-04-11 06:12 29.80647 120.94177 29997 ft 470 kts 20°
2026-04-11 06:12 29.83518 120.95981 29401 ft 468 kts 20°
2026-04-11 06:13 29.86375 120.97765 28819 ft 465 kts 21°
2026-04-11 06:13 29.89215 120.99527 28241 ft 464 kts 21°
2026-04-11 06:13 29.92055 121.01286 27656 ft 462 kts 21°
2026-04-11 06:13 29.94889 121.03039 27068 ft 460 kts 22°
2026-04-11 06:14 29.97709 121.04782 26465 ft 459 kts 22°
2026-04-11 06:14 30.00519 121.06519 25872 ft 457 kts 22°
2026-04-11 06:14 30.03321 121.08252 25281 ft 456 kts 22°
2026-04-11 06:14 30.06115 121.09982 24687 ft 454 kts 23°
2026-04-11 06:15 30.08898 121.11708 24089 ft 453 kts 23°
2026-04-11 06:15 30.11668 121.13426 23509 ft 451 kts 23°
2026-04-11 06:15 30.14419 121.15135 22937 ft 450 kts 24°
2026-04-11 06:15 30.17188 121.16856 22354 ft 448 kts 23°
2026-04-11 06:16 30.19949 121.18572 21774 ft 447 kts 24°
2026-04-11 06:16 30.22726 121.20255 21175 ft 446 kts 21°
2026-04-11 06:16 30.25539 121.21697 20576 ft 440 kts 14°
2026-04-11 06:16 30.28475 121.22626 19978 ft 433 kts
2026-04-11 06:17 30.31434 121.23189 19376 ft 429 kts
2026-04-11 06:17 30.34397 121.23586 18762 ft 426 kts 359°
2026-04-11 06:17 30.37347 121.23904 18181 ft 424 kts 359°
2026-04-11 06:17 30.40290 121.24198 17582 ft 422 kts 359°
2026-04-11 06:18 30.43186 121.24498 17002 ft 421 kts 359°
2026-04-11 06:18 30.46104 121.24827 16414 ft 419 kts
2026-04-11 06:18 30.49009 121.25188 15818 ft 418 kts
2026-04-11 06:18 30.51910 121.25579 15221 ft 417 kts
2026-04-11 06:19 30.54779 121.25806 14920 ft 405 kts 356°
2026-04-11 06:19 30.57601 121.25710 14695 ft 406 kts 351°
2026-04-11 06:19 30.60475 121.25452 14467 ft 424 kts 351°
2026-04-11 06:19 30.63474 121.25156 14237 ft 441 kts 352°